"startDT [UTC]","vpos","CH4 [ppm]","stdev(CH4) [ppm]","CO2 [ppm]","stdev(CO2) [ppm]","H2O [ppm]","stdev(H2O)","p_LGR [torr]","T_LGR [C]","mt1_LGR [us]","mt2_LGR [us]","T_ECpre [C]","T_EC1 [C]","T_EC2 [C]","p_inlet [hPa]","p_in [hPa]","p_out [hPa]","T_inlet [C]","RH_inlet [%]","dwpt_inlet [C]","T_vent [C]","RH_vent [%]","dwpt_vent [C]","flow_vent [l min-1]","flow_inlet [l min-1]","dwpt_sample [C]","T_room [C]"
2012-05-18 00:00:00,0.0,1.8933,0.0011,403.03,0.22,3.0,9.6,138.07,30.20,24.64,36.35,0.92,3.84,-28.17,-58,560,-927,25.5,8.2,-10.9,25.5,1.2,-32.3,5.73,2.36,-28.9,29.8
2012-05-18 00:01:00,0.0,1.8936,0.0007,402.99,0.18,1.6,9.5,138.07,30.20,24.64,36.35,0.95,4.37,-28.17,-58,560,-927,25.5,8.1,-11.0,25.5,1.2,-32.3,5.73,2.35,-28.9,29.9
2012-05-18 00:02:00,0.0,1.8938,0.0008,402.94,0.21,1.5,6.4,138.07,30.20,24.63,36.36,0.95,4.95,-28.16,-58,560,-927,25.5,8.0,-11.1,25.5,1.2,-32.3,5.73,2.36,-28.9,29.8
2012-05-18 00:03:00,0.0,1.8936,0.0008,402.88,0.22,1.1,6.1,138.07,30.21,24.63,36.36,0.96,5.51,-28.16,-58,560,-927,25.5,8.1,-11.0,25.5,1.2,-32.5,5.73,2.35,-28.9,29.8
2012-05-18 00:04:00,0.0,1.8939,0.0008,402.97,0.19,1.9,8.8,138.07,30.21,24.63,36.35,0.95,6.06,-28.14,-58,560,-927,25.5,8.1,-10.9,25.5,1.2,-32.5,5.73,2.35,-28.9,29.8
2012-05-18 00:05:00,0.0,1.8941,0.0010,402.93,0.18,1.7,9.3,138.07,30.21,24.63,36.35,0.91,6.57,-28.14,-58,560,-927,25.5,8.0,-11.2,25.5,1.2,-32.5,5.73,2.35,-28.9,29.9
2012-05-18 00:06:00,0.0,1.8940,0.0008,402.91,0.20,1.6,9.6,138.07,30.22,24.63,36.35,0.92,7.07,-28.13,-58,560,-927,25.5,8.0,-11.2,25.5,1.2,-32.5,5.73,2.36,-28.9,29.8
2012-05-18 00:07:00,0.0,1.8939,0.0011,402.98,0.20,1.6,8.1,138.07,30.22,24.63,36.35,0.88,7.54,-28.12,-58,560,-927,25.5,8.1,-11.0,25.5,1.2,-32.6,5.73,2.35,-28.9,29.8
2012-05-18 00:08:00,0.0,1.8940,0.0009,402.87,0.26,3.3,10.4,138.07,30.22,24.63,36.36,0.91,8.00,-28.11,-58,560,-927,25.5,8.1,-11.0,25.5,1.2,-32.4,5.73,2.35,-28.9,29.9
2012-05-18 00:09:00,0.0,1.8936,0.0008,402.93,0.24,1.7,8.8,138.07,30.22,24.63,36.35,0.91,8.44,-28.10,-58,560,-927,25.5,8.2,-10.9,25.5,1.2,-32.5,5.73,2.35,-28.9,29.9
2012-05-18 00:10:00,0.0,1.8940,0.0010,403.09,0.20,2.8,8.6,138.07,30.23,24.63,36.34,0.91,8.87,-28.10,-58,560,-927,25.5,8.2,-10.9,25.5,1.2,-32.5,5.73,2.36,-28.9,29.9
2012-05-18 00:11:00,0.0,1.8940,0.0009,402.82,0.21,3.9,10.7,138.07,30.23,24.63,36.36,0.92,9.28,-28.09,-58,560,-927,25.6,8.1,-11.0,25.5,1.2,-32.5,5.73,2.36,-28.9,29.9
2012-05-18 00:12:00,0.0,1.8938,0.0008,402.91,0.20,2.3,10.5,138.07,30.23,24.63,36.35,0.94,9.68,-28.08,-58,560,-927,25.6,8.1,-11.0,25.5,1.2,-32.5,5.73,2.35,-28.9,29.9
2012-05-18 00:13:00,0.0,1.8935,0.0008,402.94,0.18,3.3,9.7,138.07,30.24,24.63,36.35,0.95,10.07,-28.07,-58,560,-927,25.6,8.1,-10.9,25.5,1.2,-32.6,5.73,2.35,-28.9,29.9
2012-05-18 00:14:00,0.0,1.8943,0.0010,402.89,0.15,2.2,7.9,138.06,30.24,24.63,36.35,0.94,10.44,-28.07,-58,560,-927,25.6,8.0,-11.1,25.5,1.2,-32.7,5.73,2.36,-28.9,29.9
2012-05-18 00:15:00,0.0,1.8950,0.0009,402.85,0.19,1.2,7.5,138.07,30.25,24.63,36.35,1.12,-10.71,-47.80,-58,560,-927,25.6,8.0,-11.0,25.5,1.2,-32.7,5.42,2.43,-32.9,29.9
2012-05-18 00:16:00,0.0,1.8954,0.0009,402.87,0.21,2.0,8.1,138.07,30.25,24.63,36.35,0.95,11.14,-28.05,-58,560,-927,25.6,8.0,-11.1,25.5,1.2,-32.7,5.73,2.36,-28.9,29.9
2012-05-18 00:17:00,0.0,1.8952,0.0008,402.78,0.22,2.1,8.2,138.07,30.26,24.63,36.35,0.95,11.46,-28.05,-58,560,-927,25.6,7.9,-11.3,25.5,1.2,-32.7,5.73,2.35,-28.9,29.9
2012-05-18 00:18:00,0.0,1.8957,0.0008,402.84,0.19,1.3,7.9,138.06,30.26,24.63,36.35,0.92,11.77,-28.04,-58,560,-927,25.6,7.9,-11.2,25.5,1.2,-32.7,5.73,2.35,-28.8,30.0
2012-05-18 00:19:00,0.0,1.8965,0.0011,402.79,0.17,1.6,7.3,138.06,30.26,24.63,36.35,0.92,12.07,-28.03,-58,560,-927,25.6,8.0,-11.1,25.5,1.2,-32.8,5.73,2.36,-28.8,30.0
2012-05-18 00:20:00,0.0,1.8958,0.0009,402.79,0.17,2.2,9.1,138.06,30.27,24.63,36.35,0.89,12.35,-28.03,-58,560,-927,25.6,8.0,-11.1,25.5,1.2,-32.7,5.73,2.35,-28.8,29.9
2012-05-18 00:21:00,0.0,1.8955,0.0010,402.92,0.19,2.2,9.4,138.07,30.27,24.63,36.34,0.91,12.63,-28.02,-58,560,-927,25.6,7.9,-11.2,25.5,1.2,-32.7,5.73,2.36,-28.8,29.9
2012-05-18 00:22:00,0.0,1.8961,0.0009,402.83,0.16,5.4,15.2,138.07,30.27,24.63,36.35,0.92,12.89,-28.02,-58,560,-927,25.6,8.0,-11.1,25.6,1.2,-32.7,5.73,2.35,-28.8,29.9
2012-05-18 00:23:00,0.0,1.8958,0.0009,402.78,0.20,2.5,9.3,138.07,30.28,24.63,36.35,0.92,13.14,-28.01,-58,560,-927,25.6,8.0,-11.0,25.6,1.2,-32.7,5.73,2.36,-28.8,29.9
2012-05-18 00:24:00,0.0,1.8960,0.0009,402.83,0.17,3.5,10.8,138.06,30.28,24.63,36.35,0.92,13.37,-28.01,-58,560,-927,25.6,8.1,-11.0,25.6,1.2,-32.7,5.73,2.36,-28.8,30.0
2012-05-18 00:25:00,0.0,1.8960,0.0008,402.79,0.22,2.0,9.2,138.06,30.29,24.63,36.36,0.93,13.60,-27.99,-58,561,-927,25.6,8.0,-11.0,25.6,1.2,-32.8,5.73,2.36,-28.8,30.0
2012-05-18 00:26:00,0.0,1.8959,0.0010,402.79,0.21,2.7,8.3,138.06,30.29,24.63,36.35,0.93,13.82,-27.99,-58,560,-927,25.6,7.9,-11.2,25.6,1.2,-32.7,5.73,2.36,-28.8,30.0
2012-05-18 00:27:00,0.0,1.8962,0.0009,402.82,0.17,1.1,6.9,138.07,30.29,24.63,36.35,0.94,14.02,-27.98,-58,561,-927,25.6,7.9,-11.2,25.6,1.2,-32.7,5.73,2.35,-28.8,30.0
2012-05-18 00:28:00,0.0,1.8967,0.0011,402.78,0.17,2.2,6.8,138.06,30.30,24.63,36.35,0.95,14.22,-27.98,-58,561,-927,25.7,8.0,-11.0,25.6,1.2,-32.7,5.73,2.36,-28.8,30.0
2012-05-18 00:29:00,0.0,1.8968,0.0010,402.79,0.19,1.3,7.1,138.07,30.30,24.63,36.35,0.95,14.41,-27.97,-58,561,-927,25.6,8.1,-10.9,25.6,1.2,-32.7,5.73,2.36,-28.8,29.9
2012-05-18 00:30:00,0.0,1.8972,0.0009,402.87,0.20,1.9,7.0,138.06,30.31,24.63,36.35,0.96,14.59,-27.96,-58,560,-928,25.7,8.2,-10.8,25.6,1.2,-32.7,5.73,2.35,-28.8,29.9
2012-05-18 00:31:00,0.0,1.8970,0.0009,402.85,0.20,2.5,7.6,138.06,30.31,24.64,36.35,0.95,14.77,-27.96,-58,561,-927,25.7,8.1,-10.9,25.6,1.2,-32.7,5.73,2.35,-28.8,29.9
2012-05-18 00:32:00,0.0,1.8973,0.0007,402.79,0.22,0.9,7.3,138.06,30.32,24.63,36.35,0.95,14.93,-27.95,-58,560,-927,25.7,8.0,-11.0,25.6,1.2,-32.7,5.73,2.36,-28.8,29.9
2012-05-18 00:33:00,0.0,1.8974,0.0007,402.77,0.17,2.9,10.1,138.06,30.32,24.63,36.35,0.94,15.09,-27.95,-58,561,-927,25.7,8.0,-11.1,25.6,1.2,-32.7,5.73,2.35,-28.9,29.9
2012-05-18 00:34:00,0.0,1.8973,0.0010,402.70,0.16,1.9,7.5,138.06,30.33,24.63,36.36,0.90,15.24,-27.94,-58,561,-928,25.7,8.1,-10.9,25.6,1.2,-32.7,5.73,2.36,-28.8,29.9
2012-05-18 00:35:00,0.0,1.8980,0.0009,402.79,0.18,4.3,12.4,138.06,30.33,24.63,36.35,0.91,15.39,-27.94,-58,561,-927,25.7,8.1,-10.9,25.6,1.2,-32.7,5.73,2.36,-28.8,30.0
2012-05-18 00:36:00,0.0,1.8984,0.0008,402.78,0.22,2.0,7.8,138.06,30.34,24.63,36.35,0.91,15.53,-27.93,-58,561,-927,25.7,8.1,-10.9,25.6,1.2,-32.7,5.73,2.35,-28.9,30.0
2012-05-18 00:37:00,0.0,1.8982,0.0010,402.78,0.18,-0.3,3.4,138.06,30.34,24.63,36.35,0.90,15.67,-27.92,-58,561,-927,25.7,8.1,-10.9,25.6,1.2,-32.7,5.73,2.35,-28.9,30.0
2012-05-18 00:38:00,0.0,1.8986,0.0009,402.78,0.18,1.8,7.8,138.06,30.34,24.63,36.35,0.93,15.79,-27.92,-58,561,-927,25.7,8.1,-11.0,25.6,1.2,-32.7,5.73,2.35,-28.9,30.0
2012-05-18 00:39:00,0.0,1.8983,0.0007,402.81,0.23,1.3,9.7,138.06,30.35,24.63,36.35,0.91,15.91,-27.91,-58,561,-927,25.7,8.1,-10.9,25.6,1.2,-32.6,5.73,2.35,-28.9,30.0
2012-05-18 00:40:00,0.0,1.8983,0.0010,402.84,0.19,2.8,11.3,138.06,30.35,24.64,36.35,0.93,16.03,-27.91,-58,561,-927,25.7,8.2,-10.7,25.6,1.2,-32.7,5.73,2.35,-28.9,30.0
2012-05-18 00:41:00,0.0,1.8991,0.0009,402.75,0.25,0.3,4.4,138.06,30.35,24.63,36.35,0.93,16.14,-27.91,-58,561,-928,25.7,8.2,-10.8,25.6,1.2,-32.7,5.73,2.35,-28.8,30.0
2012-05-18 00:42:00,0.0,1.8991,0.0009,402.84,0.19,0.1,3.6,138.06,30.36,24.63,36.35,0.94,16.25,-27.90,-58,561,-927,25.7,8.1,-10.9,25.6,1.2,-32.6,5.73,2.35,-28.9,30.0
2012-05-18 00:43:00,0.0,1.8990,0.0011,402.79,0.19,1.6,9.0,138.06,30.36,24.63,36.35,0.93,16.35,-27.89,-58,561,-927,25.7,8.1,-10.8,25.6,1.2,-32.6,5.73,2.35,-28.9,30.0
2012-05-18 00:44:00,0.0,1.8999,0.0008,402.83,0.20,1.8,8.0,138.06,30.37,24.63,36.35,0.95,16.45,-27.89,-58,561,-927,25.7,8.2,-10.7,25.6,1.2,-32.6,5.73,2.35,-28.9,29.9
2012-05-18 00:45:00,0.0,1.9006,0.0009,402.85,0.21,2.1,9.5,138.06,30.37,24.63,36.34,0.95,16.53,-27.89,-58,561,-928,25.7,8.1,-10.9,25.6,1.2,-32.7,5.73,2.35,-28.9,29.9
2012-05-18 00:46:00,0.0,1.9004,0.0011,402.81,0.19,2.5,8.6,138.06,30.38,24.64,36.35,0.95,16.63,-27.88,-58,561,-927,25.7,8.1,-10.9,25.7,1.2,-32.6,5.73,2.35,-28.9,30.0
2012-05-18 00:47:00,0.0,1.9009,0.0008,402.78,0.17,1.3,6.9,138.06,30.38,24.63,36.35,0.95,16.71,-27.88,-58,561,-927,25.7,8.1,-10.8,25.7,1.2,-32.6,5.73,2.35,-28.9,30.0
2012-05-18 00:48:00,0.0,1.9012,0.0009,402.80,0.19,0.7,6.7,138.06,30.38,24.63,36.35,0.94,16.80,-27.88,-58,561,-927,25.7,8.2,-10.8,25.7,1.2,-32.6,5.73,2.35,-29.0,30.0
2012-05-18 00:49:00,0.0,1.9013,0.0009,402.79,0.19,1.8,6.9,138.06,30.39,24.63,36.35,0.95,16.87,-27.87,-58,561,-927,25.7,8.1,-10.8,25.7,1.2,-32.6,5.73,2.35,-28.9,30.0
2012-05-18 00:50:00,0.0,1.9015,0.0008,402.78,0.20,2.0,7.7,138.06,30.39,24.63,36.35,0.94,16.96,-27.87,-58,561,-928,25.7,8.2,-10.8,25.7,1.2,-32.6,5.73,2.36,-28.9,30.0
2012-05-18 00:51:00,0.0,1.9018,0.0009,402.82,0.23,0.8,7.0,138.06,30.40,24.63,36.35,0.92,17.03,-27.86,-58,561,-928,25.7,8.3,-10.6,25.7,1.2,-32.7,5.73,2.36,-28.9,30.0
2012-05-18 00:52:00,0.0,1.9021,0.0009,402.71,0.25,0.6,4.5,138.06,30.40,24.63,36.36,0.92,17.09,-27.86,-58,561,-928,25.7,8.3,-10.6,25.7,1.2,-32.6,5.73,2.36,-28.9,30.0
2012-05-18 00:53:00,0.0,1.9024,0.0009,402.75,0.20,2.1,8.2,138.06,30.41,24.63,36.35,0.92,17.16,-27.85,-58,561,-927,25.7,8.2,-10.6,25.7,1.2,-32.7,5.73,2.35,-28.9,30.0
2012-05-18 00:54:00,0.0,1.9024,0.0008,402.77,0.18,1.2,8.3,138.06,30.41,24.63,36.35,0.92,17.22,-27.85,-58,561,-928,25.7,8.2,-10.8,25.7,1.2,-32.7,5.73,2.36,-28.9,30.1
2012-05-18 00:55:00,0.0,1.9026,0.0009,402.72,0.21,0.4,6.5,138.06,30.41,24.63,36.36,0.92,17.29,-27.85,-58,561,-928,25.7,8.2,-10.7,25.7,1.2,-32.6,5.73,2.35,-28.9,30.1
2012-05-18 00:56:00,0.0,1.9028,0.0010,402.84,0.18,2.3,9.8,138.06,30.42,24.63,36.35,0.91,17.35,-27.84,-58,561,-927,25.8,8.2,-10.7,25.7,1.2,-32.7,5.73,2.36,-28.9,30.1
2012-05-18 00:57:00,0.0,1.9034,0.0009,402.76,0.18,1.1,6.3,138.06,30.42,24.63,36.35,0.92,17.39,-27.84,-58,561,-928,25.7,8.2,-10.6,25.7,1.2,-32.6,5.73,2.36,-28.9,30.1
2012-05-18 00:58:00,0.0,1.9038,0.0009,402.81,0.18,-0.4,3.2,138.06,30.43,24.63,36.35,0.94,17.45,-27.84,-58,561,-928,25.8,8.2,-10.6,25.7,1.2,-32.6,5.73,2.35,-28.9,30.1
2012-05-18 00:59:00,0.0,1.9039,0.0009,402.77,0.15,1.0,6.4,138.06,30.43,24.64,36.35,0.94,17.50,-27.83,-58,561,-928,25.8,8.2,-10.6,25.7,1.2,-32.7,5.73,2.35,-28.9,30.1
2012-05-18 01:00:00,0.0,1.9042,0.0008,402.83,0.20,3.1,9.9,138.06,30.44,24.63,36.35,0.93,17.55,-27.83,-58,561,-928,25.8,8.3,-10.6,25.7,1.2,-32.6,5.73,2.35,-28.9,30.1
2012-05-18 01:01:00,0.0,1.9050,0.0009,402.78,0.21,1.3,6.8,138.06,30.44,24.63,36.35,0.93,17.59,-27.83,-58,561,-928,25.8,8.2,-10.6,25.7,1.2,-32.6,5.73,2.35,-28.9,30.1
2012-05-18 01:02:00,0.0,1.9052,0.0008,402.81,0.21,3.1,9.3,138.06,30.44,24.63,36.35,0.94,17.64,-27.83,-58,561,-928,25.8,8.2,-10.6,25.7,1.2,-32.6,5.73,2.35,-28.9,30.1
2012-05-18 01:03:00,0.0,1.9052,0.0009,402.82,0.22,0.9,6.8,138.06,30.45,24.63,36.35,0.94,17.68,-27.82,-58,561,-928,25.8,8.3,-10.6,25.7,1.2,-32.6,5.73,2.36,-28.9,30.1
2012-05-18 01:04:00,0.0,1.9052,0.0009,402.79,0.19,-0.0,3.4,138.06,30.45,24.63,36.35,0.94,17.72,-27.82,-58,561,-928,25.8,8.3,-10.5,25.7,1.2,-32.6,5.73,2.35,-28.9,30.2
2012-05-18 01:05:00,0.0,1.9057,0.0009,402.80,0.20,-0.7,2.1,138.06,30.46,24.63,36.35,0.96,17.77,-27.82,-58,561,-928,25.8,8.2,-10.6,25.7,1.2,-32.6,5.73,2.36,-28.9,30.1
2012-05-18 01:06:00,0.0,1.9050,0.0007,402.73,0.20,0.4,4.9,138.06,30.46,24.63,36.35,0.96,17.80,-27.82,-58,561,-928,25.8,8.2,-10.7,25.7,1.2,-32.6,5.73,2.35,-28.9,30.1
2012-05-18 01:07:00,0.0,1.9057,0.0011,402.82,0.20,-0.3,2.9,138.06,30.46,24.63,36.35,0.95,17.84,-27.81,-58,561,-928,25.8,8.3,-10.5,25.8,1.2,-32.6,5.73,2.35,-28.9,30.2
2012-05-18 01:08:00,0.0,1.9065,0.0010,402.83,0.19,0.6,5.1,138.06,30.47,24.63,36.35,0.95,17.87,-27.81,-58,561,-928,25.8,8.2,-10.6,25.7,1.2,-32.6,5.73,2.36,-28.9,30.1
2012-05-18 01:09:00,0.0,1.9068,0.0010,402.75,0.19,1.4,9.1,138.06,30.47,24.64,36.35,0.96,17.90,-27.81,-58,561,-928,25.8,8.3,-10.6,25.7,1.2,-32.6,5.73,2.35,-28.9,30.1
2012-05-18 01:10:00,0.0,1.9074,0.0008,402.77,0.20,1.7,6.9,138.06,30.48,24.63,36.35,0.93,17.93,-27.81,-58,561,-928,25.8,8.3,-10.5,25.8,1.2,-32.6,5.73,2.35,-28.9,30.1
2012-05-18 01:11:00,0.0,1.9076,0.0009,402.75,0.19,1.3,7.3,138.06,30.48,24.63,36.35,0.93,17.96,-27.80,-58,561,-928,25.8,8.3,-10.4,25.8,1.2,-32.6,5.73,2.35,-28.9,30.1
2012-05-18 01:12:00,0.0,1.9081,0.0008,402.81,0.20,0.9,6.2,138.06,30.49,24.63,36.35,0.92,17.99,-27.81,-58,562,-928,25.8,8.3,-10.5,25.8,1.2,-32.6,5.73,2.35,-28.9,30.1
2012-05-18 01:13:00,0.0,1.9082,0.0010,402.82,0.21,-0.4,3.1,138.06,30.49,24.63,36.34,0.91,18.02,-27.80,-58,561,-928,25.8,8.3,-10.4,25.8,1.2,-32.5,5.73,2.35,-28.9,30.1
2012-05-18 01:14:00,0.0,1.9083,0.0010,402.72,0.21,1.4,8.7,138.06,30.50,24.63,36.35,0.92,18.05,-27.80,-58,561,-928,25.8,8.3,-10.4,25.8,1.2,-32.6,5.73,2.35,-28.9,30.1
2012-05-18 01:15:00,0.0,1.9080,0.0007,402.65,0.16,0.0,4.4,138.06,30.50,24.64,36.36,0.91,18.07,-27.80,-58,562,-928,25.8,8.3,-10.5,25.8,1.2,-32.6,5.73,2.35,-28.9,30.1
2012-05-18 01:16:00,0.0,1.9082,0.0009,402.76,0.20,0.0,3.7,138.06,30.50,24.63,36.35,0.93,18.10,-27.80,-58,561,-928,25.8,8.4,-10.4,25.8,1.2,-32.6,5.73,2.35,-28.9,30.1
2012-05-18 01:17:00,0.0,1.9087,0.0010,402.72,0.19,1.6,7.9,138.06,30.51,24.63,36.35,0.93,18.12,-27.80,-58,561,-928,25.8,8.3,-10.4,25.8,1.2,-32.6,5.73,2.35,-28.9,30.2
2012-05-18 01:18:00,0.0,1.9070,0.0008,402.68,0.20,0.1,5.1,138.06,30.51,24.63,36.35,0.90,18.15,-27.79,-58,562,-928,25.9,8.2,-10.6,25.8,1.2,-32.5,5.73,2.35,-28.9,30.2
2012-05-18 01:19:00,0.0,1.9079,0.0009,402.72,0.18,-0.5,1.9,138.06,30.52,24.63,36.35,0.93,18.17,-27.79,-58,562,-928,25.8,8.3,-10.5,25.8,1.2,-32.6,5.73,2.35,-28.9,30.2
2012-05-18 01:20:00,0.0,1.9082,0.0009,402.64,0.19,0.7,6.2,138.06,30.52,24.63,36.36,0.93,18.19,-27.79,-58,562,-928,25.9,8.4,-10.2,25.8,1.2,-32.5,5.73,2.35,-28.9,30.1
2012-05-18 01:21:00,0.0,1.9074,0.0010,402.67,0.18,0.9,7.4,138.06,30.53,24.64,36.35,0.94,18.21,-27.79,-58,562,-928,25.9,8.4,-10.3,25.8,1.2,-32.5,5.73,2.35,-28.9,30.2
2012-05-18 01:22:00,0.0,1.9071,0.0010,402.66,0.18,-0.1,4.1,138.06,30.53,24.64,36.35,0.94,18.23,-27.78,-58,562,-928,25.9,8.4,-10.4,25.8,1.2,-32.6,5.73,2.35,-28.9,30.2
2012-05-18 01:23:00,0.0,1.9047,0.0010,402.67,0.18,0.1,3.3,138.06,30.54,24.63,36.35,0.94,18.25,-27.79,-58,562,-928,25.9,8.4,-10.4,25.8,1.2,-32.6,5.73,2.35,-28.9,30.2
2012-05-18 01:24:00,0.0,1.9028,0.0011,402.71,0.21,0.6,5.2,138.06,30.54,24.63,36.35,0.94,18.27,-27.78,-58,562,-928,25.9,8.2,-10.6,25.8,1.2,-32.6,5.73,2.35,-28.9,30.1
2012-05-18 01:25:00,0.0,1.9020,0.0009,402.66,0.15,1.0,7.8,138.06,30.55,24.63,36.35,0.95,18.28,-27.79,-58,562,-928,25.9,8.2,-10.6,25.8,1.2,-32.8,5.73,2.35,-28.9,30.2
2012-05-18 01:26:00,0.0,1.9020,0.0010,402.68,0.20,0.8,5.7,138.06,30.55,24.63,36.35,0.95,18.30,-27.78,-58,562,-928,25.9,8.2,-10.7,25.8,1.2,-32.7,5.73,2.35,-28.9,30.2
2012-05-18 01:27:00,0.0,1.9023,0.0009,402.71,0.17,0.4,5.3,138.06,30.56,24.64,36.35,0.96,18.32,-27.78,-58,562,-928,25.9,8.1,-10.7,25.8,1.2,-32.8,5.73,2.35,-28.9,30.2
2012-05-18 01:28:00,0.0,1.9024,0.0009,402.65,0.19,1.7,7.0,138.06,30.56,24.64,36.35,0.95,18.33,-27.78,-58,562,-928,25.9,8.2,-10.6,25.8,1.2,-32.8,5.73,2.35,-28.9,30.2
2012-05-18 01:29:00,0.0,1.9033,0.0009,402.68,0.18,0.2,4.3,138.06,30.57,24.63,36.35,0.94,18.35,-27.78,-58,562,-928,25.9,8.2,-10.6,25.9,1.2,-32.8,5.73,2.34,-28.9,30.2
2012-05-18 01:30:00,0.0,1.9045,0.0009,402.57,0.21,-0.4,2.8,138.06,30.57,24.64,36.35,0.94,18.36,-27.78,-58,562,-928,25.9,8.2,-10.6,25.9,1.2,-32.8,5.73,2.35,-28.9,30.3
2012-05-18 01:31:00,0.0,1.9047,0.0009,402.70,0.17,-0.1,4.5,138.06,30.57,24.64,36.35,0.92,18.37,-27.78,-58,562,-928,25.9,8.2,-10.6,25.9,1.2,-32.8,5.73,2.35,-28.9,30.3
2012-05-18 01:32:00,0.0,1.9053,0.0008,402.71,0.21,-0.2,3.6,138.06,30.58,24.63,36.35,0.98,18.30,-27.78,-58,562,-928,25.9,8.2,-10.6,25.9,1.2,-32.8,5.73,2.34,-28.9,30.3
2012-05-18 01:33:00,0.0,1.9056,0.0007,402.60,0.20,-0.5,2.3,138.06,30.58,24.63,36.35,1.05,17.01,-27.78,-58,562,-928,25.9,8.2,-10.6,25.9,1.2,-32.8,5.73,2.34,-28.9,30.3
2012-05-18 01:34:00,0.0,1.9059,0.0010,402.65,0.17,0.0,3.1,138.06,30.59,24.63,36.35,1.04,14.79,-27.78,-58,562,-928,25.9,8.2,-10.6,25.9,1.2,-32.8,5.73,2.35,-28.9,30.3
2012-05-18 01:35:00,0.0,1.9061,0.0008,402.75,0.19,-0.5,2.2,138.06,30.59,24.63,36.35,1.07,12.43,-27.78,-58,562,-928,25.9,8.2,-10.5,25.9,1.2,-32.7,5.73,2.35,-28.9,30.3
2012-05-18 01:36:00,0.0,1.9059,0.0011,402.63,0.22,-0.0,4.4,138.06,30.60,24.63,36.36,1.01,10.09,-27.77,-58,562,-928,25.9,8.2,-10.6,25.9,1.2,-32.8,5.73,2.35,-28.9,30.3
2012-05-18 01:37:00,0.0,1.9049,0.0009,402.67,0.20,-0.1,3.4,138.06,30.60,24.63,36.35,0.99,7.84,-27.76,-58,562,-928,25.9,8.2,-10.6,25.9,1.2,-32.7,5.73,2.35,-28.9,30.3
2012-05-18 01:38:00,0.0,1.9049,0.0011,402.77,0.17,0.7,7.4,138.05,30.60,24.63,36.34,1.09,5.67,-27.74,-58,562,-928,25.9,8.2,-10.6,25.9,1.2,-32.5,5.73,2.35,-28.9,30.3
2012-05-18 01:39:00,0.0,1.9042,0.0009,402.72,0.22,-0.3,2.8,138.06,30.61,24.63,36.35,1.07,3.60,-27.72,-58,562,-928,25.9,8.3,-10.5,25.9,1.2,-32.5,5.73,2.35,-28.9,30.3
2012-05-18 01:40:00,0.0,1.9031,0.0008,402.57,0.17,0.1,3.9,138.06,30.61,24.63,36.36,0.97,1.63,-27.71,-58,562,-928,25.9,8.2,-10.5,25.9,1.2,-32.6,5.73,2.35,-28.9,30.3
2012-05-18 01:41:00,0.0,1.9019,0.0008,402.69,0.20,0.8,6.4,138.06,30.62,24.63,36.35,1.02,-0.23,-27.69,-58,562,-928,25.9,8.3,-10.4,25.9,1.2,-32.5,5.73,2.35,-28.9,30.2
2012-05-18 01:42:00,0.0,1.9016,0.0008,402.65,0.15,-0.1,5.2,138.06,30.62,24.63,36.35,1.09,-2.00,-27.68,-58,562,-928,25.9,8.1,-10.7,25.9,1.2,-32.5,5.73,2.35,-28.9,30.3
2012-05-18 01:43:00,0.0,1.9014,0.0008,402.60,0.21,0.7,5.4,138.06,30.62,24.63,36.35,1.05,-3.67,-27.67,-58,562,-928,25.9,8.1,-10.7,25.9,1.2,-32.5,5.73,2.35,-28.9,30.3
2012-05-18 01:44:00,0.0,1.9014,0.0009,402.58,0.21,1.0,7.1,138.06,30.63,24.63,36.35,0.96,-5.23,-27.66,-58,562,-928,26.0,8.2,-10.6,25.9,1.2,-32.5,5.73,2.35,-28.9,30.2
2012-05-18 01:45:00,0.0,1.9015,0.0007,402.55,0.15,1.3,6.7,138.05,30.63,24.63,36.36,1.02,-6.72,-27.65,-58,562,-928,26.0,8.2,-10.6,25.9,1.2,-32.5,5.73,2.35,-28.9,30.3
2012-05-18 01:46:00,0.0,1.9016,0.0010,402.70,0.17,1.1,7.6,138.05,30.64,24.63,36.34,1.09,-8.10,-27.65,-58,562,-928,26.0,8.1,-10.7,25.9,1.2,-32.5,5.73,2.36,-28.9,30.3
2012-05-18 01:47:00,0.0,1.9015,0.0010,402.61,0.15,0.8,8.2,138.06,30.64,24.64,36.35,1.03,-9.41,-27.65,-58,562,-928,26.0,8.1,-10.7,25.9,1.2,-32.5,5.73,2.35,-28.9,30.3
2012-05-18 01:48:00,0.0,1.9018,0.0008,402.64,0.19,0.6,7.3,138.06,30.64,24.64,36.35,0.97,-10.64,-27.65,-58,562,-928,26.0,8.2,-10.6,25.9,1.2,-32.5,5.73,2.36,-28.9,30.3
2012-05-18 01:49:00,0.0,1.9026,0.0009,402.66,0.18,1.4,6.0,138.06,30.65,24.63,36.35,1.02,-11.81,-27.65,-58,562,-928,26.0,8.3,-10.4,25.9,1.2,-32.5,5.73,2.35,-28.9,30.3
2012-05-18 01:50:00,0.0,1.9028,0.0008,402.67,0.17,0.6,5.6,138.06,30.66,24.64,36.35,1.06,-12.87,-27.65,-58,562,-928,26.0,8.2,-10.5,25.9,1.2,-32.5,5.73,2.36,-28.9,30.2
2012-05-18 01:51:00,0.0,1.9030,0.0009,402.71,0.18,0.1,3.4,138.06,30.66,24.63,36.35,1.03,-13.90,-27.66,-58,562,-928,26.0,8.2,-10.5,25.9,1.2,-32.5,5.73,2.36,-28.9,30.3
2012-05-18 01:52:00,0.0,1.9031,0.0010,402.68,0.21,-0.5,2.6,138.05,30.67,24.63,36.35,0.96,-14.86,-27.66,-58,562,-928,26.0,8.2,-10.5,25.9,1.2,-32.5,5.73,2.35,-28.9,30.3
2012-05-18 01:53:00,0.0,1.9029,0.0008,402.61,0.19,1.5,11.1,138.05,30.67,24.63,36.35,1.00,-15.76,-27.67,-58,562,-928,26.0,8.3,-10.4,25.9,1.2,-32.5,5.73,2.35,-28.9,30.3
2012-05-18 01:54:00,0.0,1.9029,0.0008,402.71,0.20,-0.4,3.4,138.05,30.68,24.64,36.35,1.06,-16.64,-27.67,-58,562,-928,26.0,8.3,-10.4,25.9,1.2,-32.5,5.73,2.35,-28.9,30.3
2012-05-18 01:55:00,0.0,1.9028,0.0009,402.72,0.22,2.2,7.7,138.05,30.68,24.63,36.35,1.06,-17.45,-27.68,-58,562,-928,26.0,8.2,-10.5,25.9,1.2,-32.5,5.73,2.35,-28.9,30.3
2012-05-18 01:56:00,0.0,1.9030,0.0009,402.66,0.22,-0.2,3.1,138.05,30.68,24.63,36.35,1.00,-18.20,-27.68,-58,562,-928,26.0,8.2,-10.5,25.9,1.2,-32.6,5.73,2.35,-28.9,30.3
2012-05-18 01:57:00,0.0,1.9027,0.0009,402.64,0.18,0.5,5.8,138.05,30.69,24.64,36.35,0.97,-18.91,-27.69,-58,562,-928,26.0,8.3,-10.4,25.9,1.2,-32.8,5.73,2.35,-28.9,30.3
2012-05-18 01:58:00,0.0,1.9027,0.0007,402.65,0.21,0.0,4.4,138.06,30.69,24.63,36.35,1.01,-19.56,-27.70,-58,562,-928,26.0,8.3,-10.4,25.9,1.2,-32.8,5.73,2.34,-28.9,30.3
2012-05-18 01:59:00,0.0,1.9026,0.0009,402.67,0.17,-0.3,3.0,138.05,30.70,24.63,36.35,1.04,-20.16,-27.71,-58,562,-928,26.0,8.3,-10.4,26.0,1.2,-32.6,5.73,2.35,-28.9,30.4
2012-05-18 02:00:00,0.0,1.9026,0.0009,402.67,0.18,4.1,13.3,138.05,30.70,24.63,36.35,1.05,-20.73,-27.72,-58,562,-928,26.0,8.3,-10.4,26.0,1.2,-32.7,5.73,2.34,-28.9,30.4
2012-05-18 02:01:00,0.0,1.9018,0.0009,402.69,0.19,0.9,8.0,138.05,30.70,24.63,36.35,0.98,-21.27,-27.72,-58,562,-928,26.1,8.3,-10.3,26.0,1.2,-32.7,5.73,2.35,-28.9,30.4
2012-05-18 02:02:00,0.0,1.9016,0.0008,402.67,0.16,1.9,9.9,138.05,30.71,24.64,36.35,0.97,-21.80,-27.74,-58,562,-928,26.1,8.3,-10.4,26.0,1.2,-32.7,5.73,2.35,-28.9,30.4
2012-05-18 02:03:00,0.0,1.9023,0.0010,402.69,0.19,1.3,6.0,138.05,30.71,24.63,36.35,1.02,-22.31,-27.75,-58,563,-928,26.0,8.3,-10.3,26.0,1.2,-32.7,5.73,2.35,-28.9,30.4
2012-05-18 02:04:00,0.0,1.9025,0.0009,402.63,0.18,0.8,7.6,138.05,30.72,24.63,36.35,1.06,-22.79,-27.75,-58,562,-928,26.1,8.3,-10.3,26.0,1.2,-32.7,5.73,2.35,-28.9,30.4
2012-05-18 02:05:00,0.0,1.9020,0.0009,402.55,0.19,1.1,7.2,138.05,30.72,24.64,36.35,1.04,-23.24,-27.76,-58,562,-928,26.1,8.4,-10.2,26.0,1.2,-32.7,5.73,2.35,-28.9,30.4
2012-05-18 02:06:00,0.0,1.9016,0.0010,402.57,0.21,0.7,6.6,138.05,30.73,24.63,36.36,0.98,-23.67,-27.77,-58,563,-928,26.1,8.4,-10.2,26.0,1.2,-32.7,5.73,2.35,-28.9,30.4
2012-05-18 02:07:00,0.0,1.9023,0.0008,402.67,0.20,1.9,7.1,138.05,30.73,24.63,36.34,0.97,-24.06,-27.78,-58,563,-928,26.1,8.4,-10.2,26.0,1.2,-32.7,5.73,2.35,-28.9,30.4
2012-05-18 02:08:00,0.0,1.9029,0.0011,402.64,0.21,1.1,7.1,138.05,30.74,24.63,36.35,1.01,-24.44,-27.78,-58,563,-928,26.1,8.4,-10.2,26.0,1.2,-32.7,5.73,2.36,-28.9,30.4
2012-05-18 02:09:00,0.0,1.9044,0.0010,402.68,0.21,1.4,7.1,138.05,30.74,24.63,36.35,1.05,-24.79,-27.79,-58,563,-928,26.1,8.4,-10.2,26.0,1.2,-32.7,5.73,2.35,-28.9,30.4
2012-05-18 02:10:00,0.0,1.9044,0.0009,402.72,0.19,1.4,6.8,138.05,30.74,24.63,36.35,1.05,-25.12,-27.80,-58,563,-928,26.1,8.3,-10.3,26.0,1.2,-32.8,5.73,2.36,-28.9,30.4
2012-05-18 02:11:00,0.0,1.9040,0.0007,402.63,0.19,1.4,7.2,138.05,30.75,24.64,36.35,0.99,-25.43,-27.81,-58,563,-928,26.1,8.3,-10.3,26.0,1.1,-32.9,5.73,2.35,-28.9,30.4
2012-05-18 02:12:00,0.0,1.9036,0.0007,402.65,0.22,0.1,5.0,138.05,30.75,24.63,36.35,0.96,-25.73,-27.81,-58,563,-928,26.1,8.3,-10.2,26.0,1.1,-32.9,5.73,2.35,-28.9,30.4
2012-05-18 02:13:00,0.0,1.9030,0.0010,402.70,0.18,2.1,9.7,138.05,30.75,24.63,36.34,0.99,-26.01,-27.82,-58,563,-928,26.1,8.3,-10.3,26.0,1.1,-32.9,5.73,2.35,-28.9,30.4
2012-05-18 02:14:00,0.0,1.9032,0.0010,402.68,0.19,0.5,7.6,138.05,30.76,24.63,36.35,1.03,-26.26,-27.83,-58,563,-928,26.1,8.3,-10.2,26.0,1.1,-32.9,5.73,2.35,-28.9,30.4
2012-05-18 02:15:00,0.0,1.9029,0.0010,402.70,0.20,0.2,4.9,138.05,30.76,24.63,36.35,1.05,-26.52,-27.83,-58,563,-928,26.1,8.3,-10.2,26.0,1.1,-32.9,5.73,2.35,-28.9,30.4
2012-05-18 02:16:00,0.0,1.9029,0.0009,402.57,0.16,1.3,8.3,138.05,30.77,24.63,36.35,0.99,-26.75,-27.84,-58,563,-928,26.1,8.3,-10.2,26.0,1.1,-33.0,5.73,2.34,-28.9,30.4
2012-05-18 02:17:00,0.0,1.9012,0.0008,402.60,0.15,2.1,8.7,138.05,30.77,24.64,36.35,0.95,-26.96,-27.85,-58,563,-928,26.1,8.4,-10.1,26.0,1.1,-32.9,5.73,2.35,-28.9,30.4
2012-05-18 02:18:00,0.0,1.9008,0.0009,402.66,0.17,2.3,10.8,138.05,30.78,24.63,36.35,0.98,-27.17,-27.85,-58,563,-928,26.1,8.4,-10.1,26.0,1.1,-32.9,5.73,2.35,-28.9,30.4
2012-05-18 02:19:00,0.0,1.9002,0.0008,402.64,0.18,0.1,4.8,138.05,30.78,24.63,36.35,1.02,-27.36,-27.86,-58,563,-928,26.1,8.4,-10.2,26.0,1.1,-32.9,5.73,2.34,-28.9,30.3
2012-05-18 02:20:00,0.0,1.9000,0.0009,402.63,0.16,1.1,6.0,138.05,30.79,24.63,36.35,1.05,-27.54,-27.86,-58,563,-928,26.1,8.4,-10.2,26.0,1.1,-32.9,5.73,2.35,-28.9,30.3
2012-05-18 02:21:00,0.0,1.8996,0.0009,402.62,0.18,0.2,4.6,138.05,30.79,24.63,36.35,1.04,-27.71,-27.87,-58,563,-928,26.1,8.3,-10.3,26.0,1.1,-32.9,5.73,2.35,-28.9,30.4